• In Russia
  • List of Countries
  • For 7 days
  • Water Temperature
  • Weather Map
  • Weather Widgets
  • user-avatar
    Login

    Hourly Weather Djelfa

    Today, 28 May, Thursday

    Time Temperature Precipitation Wind Pressure Humidity
    00:00 +21°C° 0 mm 2 mps 669 mmHg 45%
    01:00 +20°C° 0 mm 3 mps 669 mmHg 47%
    02:00 +20°C° 0 mm 4 mps 669 mmHg 49%
    03:00 +19°C° 0 mm 5 mps 669 mmHg 51%
    04:00 +19°C° 0 mm 6 mps 669 mmHg 52%
    05:00 +18°C° 0 mm 7 mps 669 mmHg 53%
    06:00 +17°C° 0 mm 8 mps 669 mmHg 55%
    07:00 +18°C° 0.1 mm 8 mps 670 mmHg 50%
    08:00 +21°C° 0.1 mm 8 mps 670 mmHg 45%
    09:00 +22°C° 0.1 mm 9 mps 670 mmHg 40%
    10:00 +23°C° 0 mm 8 mps 670 mmHg 37%
    11:00 +26°C° 0 mm 7 mps 670 mmHg 33%
    12:00 +27°C° 0 mm 7 mps 670 mmHg 29%
    13:00 +27°C° 0.5 mm 6 mps 669 mmHg 32%
    14:00 +26°C° 0.5 mm 6 mps 668 mmHg 36%
    15:00 +25°C° 0.5 mm 5 mps 667 mmHg 40%
    16:00 +23°C° 1.5 mm 5 mps 667 mmHg 45%
    17:00 +22°C° 1.5 mm 6 mps 667 mmHg 51%
    18:00 +21°C° 1.5 mm 6 mps 667 mmHg 56%
    19:00 +20°C° 0.1 mm 6 mps 667 mmHg 58%
    20:00 +19°C° 0.1 mm 6 mps 667 mmHg 59%
    21:00 +17°C° 0.1 mm 6 mps 668 mmHg 61%
    22:00 +17°C° 0.2 mm 5 mps 667 mmHg 63%
    23:00 +18°C° 0.2 mm 4 mps 667 mmHg 65%

    Tomorrow, 29 May, Friday

    Time Temperature Precipitation Wind Pressure Humidity
    00:00 +18°C° 0.2 mm 2 mps 667 mmHg 67%
    01:00 +18°C° 0.3 mm 2 mps 667 mmHg 67%
    02:00 +18°C° 0.3 mm 3 mps 666 mmHg 66%
    03:00 +18°C° 0.3 mm 3 mps 666 mmHg 66%
    04:00 +18°C° 0.2 mm 4 mps 666 mmHg 63%
    05:00 +19°C° 0.2 mm 5 mps 666 mmHg 61%
    06:00 +19°C° 0.2 mm 5 mps 666 mmHg 59%
    07:00 +20°C° 0.2 mm 6 mps 666 mmHg 54%
    08:00 +21°C° 0.2 mm 7 mps 666 mmHg 49%
    09:00 +22°C° 0.2 mm 7 mps 667 mmHg 45%
    10:00 +24°C° 0 mm 7 mps 667 mmHg 40%
    11:00 +26°C° 0 mm 7 mps 666 mmHg 35%
    12:00 +28°C° 0 mm 7 mps 666 mmHg 30%
    13:00 +28°C° 0.1 mm 7 mps 665 mmHg 29%
    14:00 +29°C° 0.1 mm 6 mps 665 mmHg 28%
    15:00 +29°C° 0.1 mm 6 mps 664 mmHg 26%
    16:00 +28°C° 0 mm 5 mps 664 mmHg 29%
    17:00 +27°C° 0 mm 5 mps 664 mmHg 31%
    18:00 +27°C° 0 mm 4 mps 663 mmHg 34%
    19:00 +25°C° 0.3 mm 5 mps 663 mmHg 42%
    20:00 +21°C° 0.3 mm 7 mps 664 mmHg 50%
    21:00 +18°C° 0.3 mm 8 mps 664 mmHg 58%
    22:00 +19°C° 0.2 mm 6 mps 663 mmHg 60%
    23:00 +19°C° 0.2 mm 5 mps 663 mmHg 61%

    Day after tomorrow, 30 May, Saturday

    Time Temperature Precipitation Wind Pressure Humidity
    00:00 +19°C° 0.2 mm 4 mps 663 mmHg 63%
    01:00 +18°C° 0.1 mm 4 mps 663 mmHg 64%
    02:00 +18°C° 0.1 mm 4 mps 663 mmHg 65%
    03:00 +18°C° 0.1 mm 3 mps 662 mmHg 66%
    04:00 +18°C° 0 mm 3 mps 662 mmHg 68%
    05:00 +18°C° 0 mm 3 mps 663 mmHg 70%
    06:00 +18°C° 0 mm 3 mps 663 mmHg 71%
    07:00 +20°C° 0 mm 3 mps 663 mmHg 65%
    08:00 +21°C° 0 mm 4 mps 663 mmHg 58%
    09:00 +22°C° 0 mm 4 mps 664 mmHg 51%
    10:00 +23°C° 0 mm 4 mps 664 mmHg 47%
    11:00 +25°C° 0 mm 4 mps 664 mmHg 42%
    12:00 +26°C° 0 mm 4 mps 664 mmHg 37%
    13:00 +26°C° 0 mm 4 mps 664 mmHg 34%
    14:00 +27°C° 0 mm 4 mps 664 mmHg 32%
    15:00 +27°C° 0 mm 4 mps 664 mmHg 29%
    16:00 +27°C° 0 mm 4 mps 663 mmHg 29%
    17:00 +27°C° 0 mm 4 mps 663 mmHg 29%
    18:00 +26°C° 0 mm 4 mps 663 mmHg 29%
    19:00 +25°C° 0 mm 5 mps 663 mmHg 31%
    20:00 +23°C° 0 mm 5 mps 664 mmHg 34%
    21:00 +22°C° 0 mm 5 mps 664 mmHg 36%
    22:00 +21°C° 0 mm 5 mps 664 mmHg 39%
    23:00 +21°C° 0 mm 4 mps 664 mmHg 42%

    31 May, Sunday

    Time Temperature Precipitation Wind Pressure Humidity
    00:00 +20°C° 0 mm 3 mps 663 mmHg 44%
    01:00 +20°C° 0 mm 3 mps 663 mmHg 45%
    02:00 +20°C° 0 mm 3 mps 663 mmHg 45%
    03:00 +19°C° 0 mm 3 mps 663 mmHg 46%
    04:00 +20°C° 0 mm 3 mps 663 mmHg 45%
    05:00 +20°C° 0 mm 4 mps 664 mmHg 44%
    06:00 +21°C° 0 mm 4 mps 664 mmHg 43%
    07:00 +22°C° 0 mm 5 mps 664 mmHg 42%
    08:00 +23°C° 0 mm 6 mps 665 mmHg 40%
    09:00 +26°C° 0 mm 7 mps 665 mmHg 38%
    10:00 +27°C° 0 mm 6 mps 665 mmHg 37%
    11:00 +28°C° 0 mm 6 mps 665 mmHg 35%
    12:00 +29°C° 0 mm 6 mps 665 mmHg 33%
    13:00 +27°C° 0.7 mm 7 mps 664 mmHg 41%
    14:00 +26°C° 0.7 mm 8 mps 663 mmHg 49%
    15:00 +23°C° 0.7 mm 9 mps 662 mmHg 57%
    16:00 +23°C° 0.3 mm 8 mps 662 mmHg 53%
    17:00 +23°C° 0.3 mm 7 mps 662 mmHg 49%
    18:00 +23°C° 0.3 mm 6 mps 662 mmHg 45%
    19:00 +22°C° 0 mm 6 mps 663 mmHg 49%
    20:00 +22°C° 0 mm 6 mps 664 mmHg 53%
    21:00 +21°C° 0 mm 6 mps 664 mmHg 58%
    22:00 +20°C° 0 mm 5 mps 664 mmHg 60%
    23:00 +20°C° 0 mm 5 mps 664 mmHg 62%

    1 June, Monday

    Time Temperature Precipitation Wind Pressure Humidity
    00:00 +20°C° 0 mm 5 mps 665 mmHg 64%
    01:00 +20°C° 0 mm 4 mps 664 mmHg 61%
    02:00 +21°C° 0 mm 3 mps 664 mmHg 57%
    03:00 +21°C° 0 mm 3 mps 664 mmHg 53%
    04:00 +21°C° 0 mm 2 mps 664 mmHg 54%
    05:00 +21°C° 0 mm 2 mps 664 mmHg 55%
    06:00 +22°C° 0 mm 1 mps 664 mmHg 56%
    07:00 +24°C° 0 mm 2 mps 664 mmHg 49%
    08:00 +25°C° 0 mm 2 mps 665 mmHg 41%
    09:00 +26°C° 0 mm 3 mps 665 mmHg 34%
    10:00 +28°C° 0 mm 4 mps 665 mmHg 30%
    11:00 +29°C° 0 mm 5 mps 666 mmHg 27%
    12:00 +30°C° 0 mm 5 mps 666 mmHg 23%
    13:00 +30°C° 0 mm 6 mps 666 mmHg 22%
    14:00 +32°C° 0 mm 6 mps 665 mmHg 21%
    15:00 +32°C° 0 mm 6 mps 665 mmHg 20%
    16:00 +30°C° 0 mm 6 mps 665 mmHg 20%
    17:00 +30°C° 0 mm 7 mps 665 mmHg 20%
    18:00 +29°C° 0 mm 7 mps 664 mmHg 20%
    19:00 +28°C° 0 mm 6 mps 665 mmHg 23%
    20:00 +27°C° 0 mm 4 mps 665 mmHg 25%
    21:00 +25°C° 0 mm 3 mps 665 mmHg 27%
    22:00 +24°C° 0 mm 3 mps 665 mmHg 30%
    23:00 +24°C° 0 mm 2 mps 664 mmHg 33%

    2 June, Tuesday

    Time Temperature Precipitation Wind Pressure Humidity
    00:00 +23°C° 0 mm 2 mps 664 mmHg 36%
    01:00 +21°C° 0 mm 2 mps 663 mmHg 36%
    02:00 +21°C° 0 mm 2 mps 663 mmHg 35%
    03:00 +21°C° 0 mm 2 mps 663 mmHg 34%
    04:00 +21°C° 0 mm 2 mps 663 mmHg 34%
    05:00 +23°C° 0 mm 2 mps 664 mmHg 34%
    06:00 +23°C° 0 mm 2 mps 664 mmHg 34%
    07:00 +24°C° 0 mm 2 mps 664 mmHg 30%
    08:00 +26°C° 0 mm 2 mps 665 mmHg 25%
    09:00 +27°C° 0 mm 2 mps 665 mmHg 21%
    10:00 +29°C° 0 mm 3 mps 665 mmHg 18%
    11:00 +30°C° 0 mm 4 mps 665 mmHg 15%
    12:00 +32°C° 0 mm 5 mps 665 mmHg 13%
    13:00 +33°C° 0 mm 5 mps 665 mmHg 13%
    14:00 +33°C° 0 mm 6 mps 664 mmHg 13%
    15:00 +34°C° 0 mm 6 mps 664 mmHg 14%
    16:00 +33°C° 0 mm 5 mps 663 mmHg 15%
    17:00 +33°C° 0 mm 5 mps 663 mmHg 16%
    18:00 +32°C° 0 mm 4 mps 663 mmHg 17%
    19:00 +30°C° 0 mm 3 mps 662 mmHg 20%
    20:00 +28°C° 0 mm 3 mps 662 mmHg 23%
    21:00 +26°C° 0 mm 2 mps 662 mmHg 27%
    22:00 +25°C° 0 mm 2 mps 662 mmHg 29%
    23:00 +25°C° 0 mm 1 mps 662 mmHg 32%
    Show more